Location: Aressy
(43.2833°N, 0.3167°W)
Time: 02:06:31
(UTC+00:00)

CZ-2D R/B - Pass Details

Date: 28 January 2021
Orbit: 521 x 537 km, 97.4° (Epoch: 08 March)

Event Time Altitude Azimuth Distance (km) Brightness Sun altitude
Rises 18:33:19 0° 178° (S) 2,663 6.9 -15.6°
Reaches altitude 10° 18:35:28 10° 184° (S) 1,775 6.1 -16.0°
Maximum altitude 18:39:12 50° 261° (W) 679 4.2 -16.7°
Drops below altitude 10° 18:42:57 10° 337° (NNW) 1,781 6.1 -17.3°
Sets 18:45:06 0° 343° (NNW) 2,672 6.9 -17.7°
